Simultaneous Nadir Overpasses (SNOs) Predictions

Prediction of SNOs between NOAA-19 and TERRA Satellite Orbit:

Table of predicted SNOs for the next 14.0 days since TLE Epoch: 3/6/2021
Index Date (NOAA-19) Time (NOAA-19) Lat,Lon (NOAA-19) SZA (NOAA-19 ) Date (TERRA) Time (TERRA) Lat,Lon (TERRA) SZA (TERRA ) Distance(km) Time Diff (sec)
1 03/06/2021 16:14:17 -80.09, 148.50 93.31 03/06/2021 16:15:11 -80.09, 148.47 93.29 0.54 54
2 03/06/2021 17:05:14 80.06, -43.86 86.69 03/06/2021 17:04:37 80.09, -43.86 86.70 3.12 37
3 03/08/2021 22:38:29 -80.07, 52.75 94.17 03/08/2021 22:38:20 -80.09, 52.74 94.15 2.24 9
4 03/11/2021 04:11:39 80.09, 149.33 84.98 03/11/2021 04:12:02 80.10, 149.32 85.00 0.67 23
5 03/11/2021 05:02:42 -80.08, -43.33 95.03 03/11/2021 05:01:30 -80.06, -43.31 95.07 2.12 72
6 03/13/2021 09:44:55 -80.10,-114.07 95.88 03/13/2021 09:45:45 -80.10,-114.09 95.87 0.42 50
7 03/13/2021 10:35:51 80.09, 53.38 84.12 03/13/2021 10:35:11 80.10, 53.53 84.12 2.93 40
8 03/15/2021 16:09:07 -80.09, 150.12 96.75 03/15/2021 16:08:54 -80.10, 150.12 96.75 0.83 13
9 03/17/2021 21:42:15 80.10,-113.15 82.40 03/17/2021 21:42:35 80.12,-113.10 82.43 3.10 20



Historial Predications of SNOs between NOAA-19 and TERRA
